Location: Cremona
(45.1170°N, 10.0330°E)
Time: 15:28:37
(UTC+01:00)

ISS - Pass Details

Date: 29 January 2019
Orbit: 403 x 411 km, 51.6° (Epoch: 20 February)

Event Time Altitude Azimuth Distance (km) Brightness Sun altitude
Rises 19:51:51 0° 290° (WNW) 2,339 1.2 -26.3°
Reaches altitude 10° 19:54:10 10° 304° (NW) 1,479 -0.3 -26.8°
Enters shadow 19:55:07 16° 316° (NW) 1,180 -1.0 -26.9°
